Location: *
(53.4003°S, 165.3236°W)
Time: 01:51:53
(UTC+00:00)

METEOR-M - Pass Details

Date: 11 December 2023
Orbit: 815 x 817 km, 98.6° (Epoch: 24 February)

Event Time Altitude Azimuth Distance (km) Brightness Sun altitude
Rises 13:19:15 0° 14° (NNE) 3,350 6.9 -7.4°
Reaches altitude 10° 13:21:35 10° 12° (NNE) 2,425 6.2 -7.2°
Maximum altitude 13:26:59 79° 285° (WNW) 853 4.2 -6.8°
Drops below altitude 10° 13:32:26 10° 198° (SSW) 2,454 7.2 -6.3°
Sets 13:34:49 0° 196° (SSW) 3,393 7.9 -6.1°
